Previsão horária em Abramivka

Hoje, 18 Maio, Terça-feira

Tempo Temperatura Precipitação Vento Pressão Humidade
00:00 +14°C° 0 mm 1 m/s 739 mmHg 95%
01:00 +14°C° 0 mm 1 m/s 739 mmHg 95%
02:00 +13°C° 0 mm 1 m/s 739 mmHg 95%
03:00 +13°C° 0 mm 1 m/s 739 mmHg 96%
04:00 +13°C° 0 mm 1 m/s 739 mmHg 96%
05:00 +13°C° 0 mm 1 m/s 739 mmHg 96%
06:00 +15°C° 0 mm 2 m/s 739 mmHg 91%
07:00 +16°C° 0 mm 2 m/s 739 mmHg 87%
08:00 +17°C° 0 mm 2 m/s 739 mmHg 82%
09:00 +18°C° 0.6 mm 3 m/s 739 mmHg 79%
10:00 +19°C° 0.6 mm 4 m/s 739 mmHg 76%
11:00 +19°C° 0.6 mm 5 m/s 739 mmHg 73%
12:00 +19°C° 0.5 mm 4 m/s 738 mmHg 74%
13:00 +19°C° 0.5 mm 4 m/s 738 mmHg 75%
14:00 +19°C° 0.5 mm 3 m/s 738 mmHg 76%
15:00 +19°C° 0.8 mm 3 m/s 738 mmHg 76%
16:00 +19°C° 0.8 mm 2 m/s 737 mmHg 77%
17:00 +19°C° 0.8 mm 2 m/s 737 mmHg 77%
18:00 +18°C° 0.4 mm 2 m/s 737 mmHg 81%
19:00 +16°C° 0.4 mm 1 m/s 737 mmHg 85%
20:00 +15°C° 0.4 mm 1 m/s 737 mmHg 88%
21:00 +15°C° 0.2 mm 1 m/s 737 mmHg 89%
22:00 +15°C° 0.2 mm 1 m/s 737 mmHg 89%
23:00 +15°C° 0.2 mm 1 m/s 737 mmHg 89%

Amanhã, 19 Maio, Quarta-feira

Tempo Temperatura Precipitação Vento Pressão Humidade
00:00 +14°C° 0 mm 1 m/s 737 mmHg 91%
01:00 +14°C° 0 mm 1 m/s 737 mmHg 92%
02:00 +14°C° 0 mm 2 m/s 737 mmHg 93%
03:00 +13°C° 0.1 mm 1 m/s 738 mmHg 94%
04:00 +13°C° 0.1 mm 1 m/s 738 mmHg 95%
05:00 +13°C° 0.1 mm 1 m/s 738 mmHg 97%
06:00 +14°C° 0.1 mm 1 m/s 738 mmHg 93%
07:00 +15°C° 0.1 mm 2 m/s 739 mmHg 90%
08:00 +16°C° 0.1 mm 2 m/s 739 mmHg 87%
09:00 +16°C° 0.3 mm 3 m/s 740 mmHg 86%
10:00 +16°C° 0.3 mm 3 m/s 740 mmHg 86%
11:00 +15°C° 0.3 mm 4 m/s 740 mmHg 85%
12:00 +14°C° 0.3 mm 5 m/s 741 mmHg 87%
13:00 +14°C° 0.3 mm 5 m/s 741 mmHg 89%
14:00 +13°C° 0.3 mm 6 m/s 741 mmHg 91%
15:00 +13°C° 0.2 mm 6 m/s 742 mmHg 91%
16:00 +12°C° 0.2 mm 5 m/s 742 mmHg 92%
17:00 +12°C° 0.2 mm 5 m/s 742 mmHg 92%
18:00 +12°C° 0.1 mm 5 m/s 742 mmHg 91%
19:00 +10°C° 0.1 mm 5 m/s 743 mmHg 91%
20:00 +10°C° 0.1 mm 5 m/s 743 mmHg 91%
21:00 +10°C° 0.3 mm 5 m/s 743 mmHg 92%
22:00 +10°C° 0.3 mm 5 m/s 743 mmHg 93%
23:00 +11°C° 0.3 mm 4 m/s 743 mmHg 94%

Depois de amanhã, 20 Maio, Quinta-feira

Tempo Temperatura Precipitação Vento Pressão Humidade
00:00 +11°C° 0.5 mm 4 m/s 743 mmHg 94%
01:00 +11°C° 0.5 mm 4 m/s 743 mmHg 94%
02:00 +11°C° 0.5 mm 4 m/s 743 mmHg 94%
03:00 +10°C° 0.3 mm 4 m/s 743 mmHg 94%
04:00 +10°C° 0.3 mm 4 m/s 743 mmHg 93%
05:00 +10°C° 0.3 mm 4 m/s 743 mmHg 93%
06:00 +9°C° 0.1 mm 5 m/s 743 mmHg 90%
07:00 +10°C° 0.1 mm 5 m/s 743 mmHg 87%
08:00 +12°C° 0.1 mm 5 m/s 743 mmHg 85%
09:00 +13°C° 0.1 mm 5 m/s 743 mmHg 79%
10:00 +13°C° 0.1 mm 5 m/s 743 mmHg 74%
11:00 +14°C° 0.1 mm 5 m/s 743 mmHg 69%
12:00 +15°C° 0 mm 5 m/s 743 mmHg 67%
13:00 +15°C° 0 mm 5 m/s 743 mmHg 65%
14:00 +16°C° 0 mm 5 m/s 743 mmHg 62%
15:00 +15°C° 0 mm 5 m/s 743 mmHg 65%
16:00 +15°C° 0 mm 4 m/s 744 mmHg 67%
17:00 +14°C° 0 mm 4 m/s 744 mmHg 69%
18:00 +13°C° 0 mm 3 m/s 744 mmHg 75%
19:00 +13°C° 0 mm 2 m/s 744 mmHg 81%
20:00 +10°C° 0 mm 2 m/s 744 mmHg 87%
21:00 +10°C° 0 mm 2 m/s 744 mmHg 89%
22:00 +9°C° 0 mm 2 m/s 744 mmHg 90%
23:00 +9°C° 0 mm 2 m/s 744 mmHg 92%

21 Maio, Sexta-feira

Tempo Temperatura Precipitação Vento Pressão Humidade
00:00 +9°C° 0 mm 3 m/s 744 mmHg 92%
01:00 +9°C° 0 mm 3 m/s 745 mmHg 93%
02:00 +9°C° 0 mm 3 m/s 745 mmHg 93%
03:00 +9°C° 0 mm 3 m/s 745 mmHg 93%
04:00 +9°C° 0 mm 3 m/s 745 mmHg 93%
05:00 +9°C° 0 mm 3 m/s 746 mmHg 93%
06:00 +10°C° 0 mm 3 m/s 746 mmHg 86%
07:00 +11°C° 0 mm 4 m/s 746 mmHg 79%
08:00 +13°C° 0 mm 4 m/s 747 mmHg 72%
09:00 +14°C° 0 mm 4 m/s 747 mmHg 66%
10:00 +15°C° 0 mm 4 m/s 748 mmHg 60%
11:00 +17°C° 0 mm 4 m/s 748 mmHg 54%
12:00 +18°C° 0 mm 4 m/s 748 mmHg 51%
13:00 +18°C° 0 mm 4 m/s 748 mmHg 48%
14:00 +19°C° 0 mm 4 m/s 748 mmHg 45%
15:00 +18°C° 0 mm 4 m/s 748 mmHg 47%
16:00 +18°C° 0 mm 4 m/s 749 mmHg 49%
17:00 +18°C° 0 mm 4 m/s 749 mmHg 51%
18:00 +16°C° 0 mm 3 m/s 749 mmHg 57%
19:00 +14°C° 0 mm 3 m/s 749 mmHg 62%
20:00 +13°C° 0 mm 2 m/s 750 mmHg 68%
21:00 +12°C° 0 mm 2 m/s 750 mmHg 70%
22:00 +10°C° 0 mm 2 m/s 750 mmHg 73%
23:00 +9°C° 0 mm 2 m/s 750 mmHg 75%

22 Maio, Sábado

Tempo Temperatura Precipitação Vento Pressão Humidade
00:00 +9°C° 0 mm 2 m/s 750 mmHg 76%
01:00 +9°C° 0 mm 1 m/s 750 mmHg 77%
02:00 +9°C° 0 mm 1 m/s 750 mmHg 78%
03:00 +9°C° 0 mm 1 m/s 750 mmHg 78%
04:00 +9°C° 0 mm 1 m/s 751 mmHg 79%
05:00 +9°C° 0 mm 1 m/s 751 mmHg 79%
06:00 +11°C° 0 mm 1 m/s 751 mmHg 72%
07:00 +13°C° 0 mm 1 m/s 751 mmHg 65%
08:00 +15°C° 0 mm 1 m/s 751 mmHg 58%
09:00 +16°C° 0 mm 1 m/s 751 mmHg 54%
10:00 +18°C° 0 mm 1 m/s 751 mmHg 49%
11:00 +19°C° 0 mm 1 m/s 751 mmHg 45%
12:00 +20°C° 0 mm 1 m/s 750 mmHg 43%
13:00 +20°C° 0 mm 1 m/s 750 mmHg 41%
14:00 +21°C° 0 mm 1 m/s 750 mmHg 40%
15:00 +21°C° 0 mm 1 m/s 750 mmHg 41%
16:00 +20°C° 0 mm 1 m/s 750 mmHg 42%
17:00 +20°C° 0 mm 1 m/s 750 mmHg 43%
18:00 +18°C° 0 mm 1 m/s 750 mmHg 51%
19:00 +16°C° 0 mm 1 m/s 750 mmHg 58%
20:00 +14°C° 0 mm 1 m/s 749 mmHg 66%
21:00 +13°C° 0 mm 1 m/s 750 mmHg 70%
22:00 +13°C° 0 mm 2 m/s 750 mmHg 74%
23:00 +12°C° 0 mm 2 m/s 750 mmHg 77%

23 Maio, Domingo

Tempo Temperatura Precipitação Vento Pressão Humidade
00:00 +12°C° 0 mm 2 m/s 750 mmHg 79%
01:00 +10°C° 0 mm 2 m/s 750 mmHg 82%
02:00 +10°C° 0 mm 2 m/s 750 mmHg 84%
03:00 +10°C° 0 mm 2 m/s 750 mmHg 85%
04:00 +10°C° 0 mm 2 m/s 750 mmHg 86%
05:00 +10°C° 0 mm 2 m/s 750 mmHg 86%
06:00 +12°C° 0 mm 3 m/s 750 mmHg 79%
07:00 +13°C° 0 mm 3 m/s 750 mmHg 72%
08:00 +16°C° 0 mm 3 m/s 749 mmHg 65%
09:00 +18°C° 0 mm 3 m/s 749 mmHg 60%
10:00 +19°C° 0 mm 3 m/s 749 mmHg 56%
11:00 +20°C° 0 mm 3 m/s 749 mmHg 51%
12:00 +20°C° 0 mm 2 m/s 749 mmHg 51%
13:00 +20°C° 0 mm 2 m/s 749 mmHg 52%
14:00 +20°C° 0 mm 2 m/s 748 mmHg 52%
15:00 +20°C° 0 mm 2 m/s 748 mmHg 55%
16:00 +20°C° 0 mm 2 m/s 748 mmHg 58%
17:00 +20°C° 0 mm 2 m/s 748 mmHg 61%
18:00 +18°C° 0 mm 2 m/s 748 mmHg 67%
19:00 +17°C° 0 mm 2 m/s 748 mmHg 73%
20:00 +16°C° 0 mm 2 m/s 748 mmHg 79%
21:00 +15°C° 0 mm 2 m/s 748 mmHg 81%
22:00 +14°C° 0 mm 2 m/s 748 mmHg 83%
23:00 +14°C° 0 mm 2 m/s 748 mmHg 84%
Mostrar mais

Necessitamos do seu Consentimento

A Meteoprog e os seus Fornecedores de Serviços podem armazenar e aceder a dados pessoais como cookies, identificadores do dispositivo ou outras tecnologias semelhantes existentes no seu dispositivo e processar estes dados para personalizar conteúdos e anúncios, assim como funcionalidades nas redes sociais e análise de tráfego.

  • Armazenar e/ou aceder a informações no seu dispositivo

    Os cookies, identificadores do dispositivo ou outras informações podem ser armazenados ou acedidos no seu dispositivo, para os fins acima indicados.

  • Anúncios e conteúdos personalizados, medição de anúncios e conteúdos, dados sobre o público-alvo e desenvolvimento de produtos

    Os anúncios e os conteúdos podem ser personalizados com base num perfil. Podem ser adicionados dados adicionais para uma maior personalização dos anúncios e dos conteúdos. A eficácia dos anúncios e dos conteúdos pode ser medida. Podem ser obtidas informações sobre o público que visualizou os anúncios e os conteúdos. Estes dados podem ser usados para desenvolver ou melhorar sistemas, softwares ou a experiência do utilizador.

Ao clicar em "Eu concordo”, permitirá o uso de cookies, identificadores do dispositivo e web beacons mencionados ou outras tecnologias semelhantes. As configurações do navegador do seu dispositivo podem ser alteradas.

Para certos fins, podem ser invocados interesses legítimos ao invés de consentimento. Pode ler mais informação sobre este assunto na nossa Política de Privacidade e Cookies.